Location: Hains Lake
(37.8540°N, 99.8578°W)
Time: 17:48:37
(UTC+00:00)

Courier 1B Rocket - Pass Details

Date: 02 December 2021
Orbit: 920 x 1202 km, 28.2° (Epoch: 19 January)

Event Time Altitude Azimuth Distance (km) Brightness Sun altitude
Exits shadow 10:26:22 16° 161° (SSE) 2,278 7.1 -37.1°
Drops below altitude 10° 10:28:10 10° 148° (SSE) 2,720 7.6 -36.7°
Sets 10:31:29 0° 134° (SE) 3,715 8.6 -36.1°
